• In Germany
  • List of Countries
  • For 7 days
  • Water Temperature
  • Satellite Maps
  • Weather Map
  • Weather Widgets
  • user-avatar
    Login

    Hourly Weather Tarin Kowt

    Today, 23 November, Thursday

    Time Temperature Precipitation Wind Pressure Humidity
    00:00 +9°C° 0 mm 1 mps 616 mmHg 17%
    01:00 +9°C° 0 mm 1 mps 616 mmHg 17%
    02:00 +8°C° 0 mm 1 mps 616 mmHg 18%
    03:00 +8°C° 0 mm 1 mps 615 mmHg 18%
    04:00 +6°C° 0 mm 2 mps 615 mmHg 19%
    05:00 +6°C° 0 mm 2 mps 615 mmHg 19%
    06:00 +7°C° 0 mm 2 mps 615 mmHg 19%
    07:00 +7°C° 0 mm 2 mps 616 mmHg 19%
    08:00 +10°C° 0 mm 1 mps 616 mmHg 16%
    09:00 +12°C° 0 mm 1 mps 617 mmHg 14%
    10:00 +14°C° 0 mm 1 mps 618 mmHg 11%
    11:00 +15°C° 0 mm 1 mps 618 mmHg 11%
    12:00 +15°C° 0 mm 1 mps 618 mmHg 10%
    13:00 +16°C° 0 mm 1 mps 618 mmHg 9%
    14:00 +15°C° 0 mm 1 mps 617 mmHg 10%
    15:00 +15°C° 0 mm 1 mps 617 mmHg 11%
    16:00 +14°C° 0 mm 0 mps 617 mmHg 11%
    17:00 +12°C° 0 mm 0 mps 617 mmHg 12%
    18:00 +12°C° 0 mm 1 mps 616 mmHg 13%
    19:00 +10°C° 0 mm 1 mps 616 mmHg 14%
    20:00 +10°C° 0 mm 1 mps 616 mmHg 14%
    21:00 +10°C° 0 mm 1 mps 616 mmHg 14%
    22:00 +9°C° 0 mm 1 mps 616 mmHg 14%
    23:00 +9°C° 0 mm 1 mps 616 mmHg 14%

    Tomorrow, 24 November, Friday

    Time Temperature Precipitation Wind Pressure Humidity
    00:00 +9°C° 0 mm 1 mps 616 mmHg 14%
    01:00 +8°C° 0 mm 2 mps 616 mmHg 15%
    02:00 +7°C° 0 mm 2 mps 615 mmHg 15%
    03:00 +7°C° 0 mm 2 mps 615 mmHg 15%
    04:00 +7°C° 0 mm 2 mps 615 mmHg 15%
    05:00 +7°C° 0 mm 2 mps 615 mmHg 15%
    06:00 +7°C° 0 mm 2 mps 616 mmHg 15%
    07:00 +8°C° 0 mm 2 mps 616 mmHg 15%
    08:00 +10°C° 0 mm 2 mps 617 mmHg 13%
    09:00 +13°C° 0 mm 2 mps 618 mmHg 12%
    10:00 +15°C° 0 mm 2 mps 619 mmHg 10%
    11:00 +15°C° 0 mm 2 mps 619 mmHg 12%
    12:00 +15°C° 0 mm 2 mps 619 mmHg 13%
    13:00 +16°C° 0 mm 2 mps 618 mmHg 14%
    14:00 +16°C° 0 mm 2 mps 618 mmHg 16%
    15:00 +15°C° 0 mm 1 mps 618 mmHg 17%
    16:00 +15°C° 0 mm 1 mps 617 mmHg 18%
    17:00 +14°C° 0 mm 2 mps 617 mmHg 20%
    18:00 +13°C° 0 mm 2 mps 617 mmHg 21%
    19:00 +12°C° 0 mm 2 mps 617 mmHg 22%
    20:00 +10°C° 0 mm 2 mps 617 mmHg 24%
    21:00 +10°C° 0 mm 2 mps 617 mmHg 25%
    22:00 +10°C° 0 mm 2 mps 617 mmHg 26%
    23:00 +9°C° 0 mm 2 mps 617 mmHg 27%

    Day after tomorrow, 25 November, Saturday

    Time Temperature Precipitation Wind Pressure Humidity
    00:00 +9°C° 0 mm 3 mps 617 mmHg 28%
    01:00 +9°C° 0 mm 3 mps 616 mmHg 30%
    02:00 +9°C° 0.1 mm 3 mps 616 mmHg 32%
    03:00 +9°C° 0.1 mm 2 mps 616 mmHg 34%
    04:00 +9°C° 0.1 mm 2 mps 616 mmHg 36%
    05:00 +9°C° 0.3 mm 2 mps 616 mmHg 40%
    06:00 +8°C° 0.3 mm 2 mps 616 mmHg 44%
    07:00 +8°C° 0.3 mm 2 mps 617 mmHg 48%
    08:00 +9°C° 0.2 mm 2 mps 617 mmHg 48%
    09:00 +10°C° 0.2 mm 2 mps 618 mmHg 47%
    10:00 +12°C° 0.2 mm 2 mps 618 mmHg 47%
    11:00 +12°C° 0 mm 2 mps 618 mmHg 47%
    12:00 +13°C° 0 mm 2 mps 618 mmHg 47%
    13:00 +14°C° 0 mm 2 mps 618 mmHg 46%
    14:00 +14°C° 0 mm 2 mps 618 mmHg 46%
    15:00 +14°C° 0 mm 2 mps 618 mmHg 45%
    16:00 +14°C° 0 mm 2 mps 618 mmHg 45%
    17:00 +13°C° 0 mm 2 mps 618 mmHg 48%
    18:00 +12°C° 0 mm 1 mps 618 mmHg 52%
    19:00 +11°C° 0 mm 1 mps 619 mmHg 55%
    20:00 +10°C° 0 mm 1 mps 619 mmHg 57%
    21:00 +10°C° 0 mm 1 mps 619 mmHg 59%
    22:00 +9°C° 0 mm 1 mps 619 mmHg 60%
    23:00 +9°C° 0 mm 1 mps 619 mmHg 61%

    26 November, Sunday

    Time Temperature Precipitation Wind Pressure Humidity
    00:00 +8°C° 0 mm 1 mps 618 mmHg 62%
    01:00 +8°C° 0 mm 1 mps 618 mmHg 63%
    02:00 +7°C° 0 mm 1 mps 618 mmHg 64%
    03:00 +7°C° 0 mm 1 mps 618 mmHg 64%
    04:00 +7°C° 0 mm 1 mps 618 mmHg 65%
    05:00 +7°C° 0 mm 1 mps 618 mmHg 63%
    06:00 +7°C° 0 mm 1 mps 619 mmHg 61%
    07:00 +7°C° 0 mm 1 mps 619 mmHg 60%
    08:00 +9°C° 0 mm 1 mps 620 mmHg 53%
    09:00 +10°C° 0 mm 1 mps 621 mmHg 46%
    10:00 +12°C° 0 mm 1 mps 622 mmHg 39%
    11:00 +13°C° 0 mm 1 mps 622 mmHg 35%
    12:00 +13°C° 0 mm 1 mps 621 mmHg 31%
    13:00 +14°C° 0 mm 1 mps 621 mmHg 27%
    14:00 +14°C° 0 mm 1 mps 621 mmHg 27%
    15:00 +14°C° 0 mm 1 mps 621 mmHg 27%
    16:00 +14°C° 0 mm 1 mps 621 mmHg 26%
    17:00 +12°C° 0 mm 1 mps 620 mmHg 29%
    18:00 +11°C° 0 mm 1 mps 620 mmHg 33%
    19:00 +10°C° 0 mm 1 mps 620 mmHg 36%
    20:00 +9°C° 0 mm 1 mps 620 mmHg 37%
    21:00 +8°C° 0 mm 1 mps 620 mmHg 38%
    22:00 +7°C° 0 mm 0 mps 619 mmHg 40%
    23:00 +6°C° 0 mm 0 mps 619 mmHg 40%

    27 November, Monday

    Time Temperature Precipitation Wind Pressure Humidity
    00:00 +6°C° 0 mm 0 mps 618 mmHg 41%
    01:00 +6°C° 0 mm 0 mps 618 mmHg 41%
    02:00 +5°C° 0 mm 0 mps 617 mmHg 41%
    03:00 +5°C° 0 mm 0 mps 617 mmHg 41%
    04:00 +4°C° 0 mm 0 mps 617 mmHg 41%
    05:00 +5°C° 0 mm 0 mps 617 mmHg 40%
    06:00 +5°C° 0 mm 0 mps 617 mmHg 38%
    07:00 +5°C° 0 mm 0 mps 617 mmHg 36%
    08:00 +8°C° 0 mm 1 mps 618 mmHg 30%
    09:00 +10°C° 0 mm 1 mps 619 mmHg 23%
    10:00 +12°C° 0 mm 1 mps 620 mmHg 17%
    11:00 +13°C° 0 mm 2 mps 620 mmHg 15%
    12:00 +13°C° 0 mm 2 mps 620 mmHg 13%
    13:00 +13°C° 0 mm 3 mps 619 mmHg 12%
    14:00 +13°C° 0 mm 3 mps 619 mmHg 12%
    15:00 +12°C° 0 mm 3 mps 619 mmHg 13%
    16:00 +13°C° 0 mm 2 mps 618 mmHg 14%
    17:00 +12°C° 0 mm 2 mps 618 mmHg 16%
    18:00 +9°C° 0 mm 2 mps 618 mmHg 18%
    19:00 +9°C° 0 mm 1 mps 618 mmHg 20%
    20:00 +8°C° 0 mm 1 mps 618 mmHg 21%
    21:00 +8°C° 0 mm 1 mps 617 mmHg 22%
    22:00 +7°C° 0 mm 1 mps 617 mmHg 23%
    23:00 +7°C° 0 mm 1 mps 617 mmHg 24%

    28 November, Tuesday

    Time Temperature Precipitation Wind Pressure Humidity
    00:00 +7°C° 0 mm 1 mps 616 mmHg 25%
    01:00 +6°C° 0 mm 1 mps 616 mmHg 25%
    02:00 +6°C° 0 mm 1 mps 616 mmHg 26%
    03:00 +6°C° 0 mm 1 mps 616 mmHg 26%
    04:00 +5°C° 0 mm 1 mps 615 mmHg 27%
    05:00 +6°C° 0 mm 1 mps 616 mmHg 26%
    06:00 +6°C° 0 mm 1 mps 616 mmHg 26%
    07:00 +6°C° 0 mm 1 mps 616 mmHg 25%
    08:00 +8°C° 0 mm 1 mps 617 mmHg 23%
    09:00 +9°C° 0 mm 0 mps 618 mmHg 20%
    10:00 +11°C° 0 mm 0 mps 619 mmHg 17%
    11:00 +12°C° 0 mm 1 mps 619 mmHg 17%
    12:00 +13°C° 0 mm 1 mps 618 mmHg 17%
    13:00 +14°C° 0 mm 1 mps 618 mmHg 17%
    14:00 +13°C° 0 mm 1 mps 618 mmHg 18%
    15:00 +13°C° 0 mm 1 mps 618 mmHg 19%
    16:00 +13°C° 0 mm 1 mps 618 mmHg 20%
    17:00 +12°C° 0 mm 1 mps 618 mmHg 22%
    18:00 +11°C° 0 mm 1 mps 617 mmHg 24%
    19:00 +9°C° 0 mm 1 mps 617 mmHg 27%
    20:00 +8°C° 0 mm 0 mps 617 mmHg 28%
    21:00 +7°C° 0 mm 0 mps 617 mmHg 30%
    22:00 +7°C° 0 mm 0 mps 616 mmHg 31%
    23:00 +6°C° 0 mm 0 mps 616 mmHg 32%
    Show more